Location: Brahman Valley
(40.6513°N, 111.8855°W)
Time: 09:28:13
(UTC+00:00)

Tiros 1 despin weight - Pass Details

Date: 13 May 2021
Orbit: 594 x 641 km, 48.2° (Epoch: 22 June)

Event Time Altitude Azimuth Distance (km) Brightness Sun altitude
Rises 09:37:34 0° 297° (WNW) 2,942 ? -23.2°
Enters shadow 09:38:20 - 297° (WNW) 2,644 ? -23.1°
Reaches altitude 10° 09:39:56 10° 294° (WNW) 2,028 - -22.9°
Maximum altitude 09:44:32 59° 216° (SW) 736 - -22.4°
Exits shadow 09:48:06 16° 140° (SE) 1,639 ? -22.0°
Drops below altitude 10° 09:49:03 10° 137° (SE) 1,998 ? -21.9°
Sets 09:51:22 0° 133° (SE) 2,895 ? -21.7°
